Location: Jesenik
(50.2330°N, 17.2000°E)
Time: 22:54:18
(UTC+02:00)

ISS - Pass Details

Date: 27 March 2019
Orbit: 408 x 410 km, 51.6° (Epoch: 24 April)

Event Time Altitude Azimuth Distance (km) Brightness Sun altitude
Rises 20:09:25 0° 269° (W) 2,335 1.1 -18.3°
Reaches altitude 10° 20:11:31 10° 272° (W) 1,474 -0.1 -18.6°
Maximum altitude 20:14:48 67° 356° (N) 446 -3.6 -19.0°
Enters shadow 20:15:16 57° 46° (NE) 489 -3.6 -19.1°
